Location: Recife
(8.0585°S, 34.8848°W)
Time: 10:56:49
(UTC-03:00)

SR - Pass Details

Date: 19 April 2026
Orbit: 568 x 852 km, 66.7° (Epoch: 12 May)

Event Time Altitude Azimuth Distance (km) Brightness Sun altitude
Rises 22:24:08 0° 7° (N) 3,397 - -76.2°
Reaches altitude 10° 22:27:09 10° 22° (NNE) 2,459 - -76.9°
Maximum altitude 22:31:28 22° 71° (ENE) 1,730 - -77.9°
Drops below altitude 10° 22:35:42 10° 121° (ESE) 2,398 - -78.9°
Sets 22:38:34 0° 135° (SE) 3,292 - -79.6°
